Flag for Russia Weather past 2 weeks in Samara, Russia

Now
-8 °F

Sunny.


Feels Like: -17 °F
Forecast: -12 / -1 °F
Wind: 3 mph from Southeast

Location: Samara

Current Time: Jan 26, 2015 at 11:14:12 AM

Latest Report: Jan 26, 2015 at 10:30 AM


Visibility: 10 mi

Pressure: 30.77 "Hg

Humidity: 77%

Dew point: -13 °F

Location of SamaraLocation

Historic Weather in Samara — Graph

°F

Samara temperature yesterday

Maximum temperature yesterday: 5 °F (at 3:00 PM)
Minimum temperature yesterday: -6 °F (at 4:30 AM)
Average temperature yesterday: -2 °F

Past Weeks' High & Low Weather Summary

 TemperatureHumidityPressure
High37 °F (Jan 14, 12:00 PM)100% (Jan 16, 5:30 PM)30.86 "Hg (Jan 16, 5:30 PM)
Low-15 °F (Jan 24, 3:00 AM)61% (Jan 22, 12:30 AM)29.27 "Hg (Jan 12, 3:30 AM)
Average17 °F83%30.17 "Hg
* Reported Jan 11 10:00 AM — Jan 26 10:00 AM, Samara, Weather by CustomWeather, © 2014

Note: Actual official high and low records may vary slightly from our data, if they occured in-between our weather recording intervals... More about our weather records

Advertising

Samara weather history for previous 24 hours

 ConditionsComfort  
Time TempWeatherWind HumidityBarometerVisibility
10:00 AM
Jan 26
-8 °FSunny.3 mph84%30.77 "Hg10 mi
9:30 AM-11 °FClear.3 mph76%30.77 "Hg10 mi
9:00 AM-13 °FClear.1 mph83%30.77 "Hg10 mi
8:30 AM-11 °FClear.1 mph76%30.77 "Hg10 mi
8:00 AM-11 °FClear.1 mph84%30.77 "Hg10 mi
7:30 AM-9 °FIce fog.3 mph77%30.77 "Hg2 mi
7:00 AM-11 °FIce fog.1 mph84%30.77 "Hg2 mi
6:30 AM-9 °FIce fog.3 mph84%30.77 "Hg2 mi
6:00 AM-11 °FIce fog.3 mph84%30.80 "Hg2 mi
5:30 AM-9 °FIce fog.3 mph84%30.80 "Hg2 mi
5:00 AM-8 °FIce fog.6 mph84%30.80 "Hg2 mi
4:30 AM-8 °FIce fog.3 mph77%30.80 "Hg2 mi
4:00 AM-6 °FIce fog.3 mph84%30.80 "Hg2 mi
3:30 AM-6 °FIce fog.3 mph77%30.83 "Hg2 mi
3:00 AM-8 °FIce fog.3 mph84%30.83 "Hg2 mi
2:30 AM-4 °FClear.1 mph77%30.83 "Hg10 mi
2:00 AM-4 °FClear.1 mph84%30.83 "Hg10 mi
1:30 AM-6 °FClear.6 mph84%30.83 "Hg10 mi
1:00 AM-6 °FClear.6 mph84%30.83 "Hg10 mi
12:30 AM-2 °FClear.6 mph77%30.86 "Hg10 mi
12:00 AM-2 °FClear.3 mph77%30.86 "Hg10 mi
11:30 PM
Jan 25
-2 °FClear.6 mph77%30.86 "Hg10 mi
11:00 PM-2 °FClear.6 mph77%30.86 "Hg10 mi
10:30 PM-2 °FClear.8 mph77%30.86 "Hg10 mi
10:00 PM-4 °FClear.6 mph77%30.86 "Hg10 mi
9:30 PM-6 °FClear.3 mph84%30.86 "Hg10 mi
9:00 PM-2 °FClear.3 mph77%30.86 "Hg10 mi
8:30 PM-2 °FClear.3 mph77%30.86 "Hg10 mi
8:00 PM-2 °FClear.3 mph77%30.86 "Hg10 mi
7:30 PM0 °FClear.8 mph71%30.86 "Hg10 mi
7:00 PM1 °FClear.10 mph65%30.86 "Hg10 mi
6:30 PM1 °FClear.6 mph71%30.86 "Hg10 mi
6:00 PM0 °FSunny.6 mph78%30.86 "Hg10 mi
5:30 PM0 °FSunny.3 mph71%30.86 "Hg10 mi
5:00 PM1 °FSunny.3 mph71%30.86 "Hg10 mi
4:30 PM1 °FSunny.3 mph71%30.86 "Hg10 mi
4:00 PM3 °FSunny.10 mph72%30.86 "Hg10 mi
3:30 PM3 °FSunny.10 mph72%30.86 "Hg10 mi
3:00 PM5 °FSunny.10 mph66%30.86 "Hg10 mi
2:30 PM3 °FSunny.6 mph72%30.86 "Hg10 mi
2:00 PM3 °FSunny.8 mph72%30.86 "Hg10 mi
1:30 PM3 °FSunny.8 mph72%30.86 "Hg10 mi
1:00 PM1 °FSunny.8 mph78%30.86 "Hg10 mi
12:30 PM1 °FSunny.8 mph71%30.86 "Hg10 mi
12:00 PM0 °FSunny.8 mph78%30.86 "Hg10 mi
11:30 AM0 °FSunny.8 mph71%30.86 "Hg10 mi
11:00 AM-2 °FSunny.10 mph77%30.86 "Hg10 mi
Weather by CustomWeather, © 2014

See weather overviewHow to use our weather pages